CZ-6A DEB, 60666

Orbit data source: Space-Track

CZ-6A DEB, 60666 is space debris in LEO originally from a launch on Tue, 06 Aug 2024 UTC launched from the Taiyaun Space Center, China (TSC). Debris objects in space refer to the collection of defunct objects orbiting the Earth. Examples of debris include non-operational satellites, rocket bodies, and fragments generated from explosions, collisions, or faulty payload assembly.

Loading next visibility...
Identifier
60666, 2024-140BT
Orbit
LEO
Country
Flag of CNCN / PRC
Related business
Manufacturer
SAST
Mission
Spacecraft
Bus & Motor
Unknown
Mass
Unknown
Launch date (UTC)
2024-08-06 (2 years ago)
Launch vehicle
Unknown
Launch site
Taiyaun Space Center, China (TSC)
Object type
Payload
Rocket body
Debris
Shape & HBR
Unknown shape, 0.4 m
Radar Cross Section
Medium (>0.1 m² and <1 m²)

Expand to show TLE details & history
Last TLE update: 13 hours ago

TLE from 13 hours ago
0 CZ-6A DEB
1 60666U 24140BT  26171.30591921  .00000179  00000-0  93541-4 0  9995
2 60666  89.0119 276.6767 0095750 219.5565 139.8605 14.07977142 95710
Epoch: 2026-06-20T07:20Z
TLE epoch observation values (Epoch: 2026-06-20T07:20:31.419Z)
Latitude
-0.00007°
Longitude
-101.97665°
Altitude
922.651 km
Speed
7.363 km/s
True Right ascension
18h 26m 42s
True Declination
0° 00' 00"
Sunlit
Object was in full shadow at epoch
Visualization orbit readout
Latitude
Unknown
Longitude
Unknown
Altitude
Unknown
Speed
Unknown
Apparent Right ascension
Unknown
Apparent Declination
Unknown
Sunlit
N/A
Visualization observer readout
Local Sidereal Time
07:21:26
Azimuth
Unknown
Elevation
Unknown
Doppler factor
Unknown
Orbital elements
Apogee altitude
932.607 km
Perigee altitude
793.934 km
Semi-major axis
7,241.407 km
Eccentricity
0.00958
Inclination
89.0119°
RAAN
276.6767°
Arg. of periapsis
219.5565°
True anomaly
140.56139°
Mean anomaly
139.8605°
Eccentric anomaly
140.21158°
Mean motion
3.52216 °/min
Orbital period
102.21 mins
BSTAR
0.000093541
Loading maneuver chart data...
Computing Atmospheric mass density...
Loading historical data...
Loading historical data...
Loading historical data...
Loading historical data...
Loading historical data...
Loading historical data...
Loading historical data...

Documentation

Showing up to 5 results
|